TimePST,TemperatureF,Dew PointF,Humidity,Sea Level PressureIn,VisibilityMPH,Wind Direction,Wind SpeedMPH,Gust SpeedMPH,PrecipitationIn,Events,Conditions,WindDirDegrees,DateUTC
12:53 AM,28.0,25.0,88,30.14,8.0,Calm,Calm,-,N/A,,Overcast,0,2013-12-06 08:53:00
1:53 AM,28.9,26.1,89,30.12,8.0,Calm,Calm,-,N/A,,Overcast,0,2013-12-06 09:53:00
2:53 AM,28.9,26.1,89,30.12,5.0,SW,3.5,-,0.00,,Overcast,230,2013-12-06 10:53:00
3:20 AM,28.9,26.1,89,30.10,2.5,Calm,Calm,-,0.00,Snow,Light Snow,0,2013-12-06 11:20:00
3:28 AM,28.9,27.0,92,30.09,0.8,Calm,Calm,-,0.00,Snow,Light Snow,0,2013-12-06 11:28:00
3:39 AM,28.9,27.0,92,30.08,1.2,ESE,3.5,-,0.00,Snow,Light Snow,120,2013-12-06 11:39:00
3:44 AM,28.9,27.0,92,30.08,2.5,Calm,Calm,-,0.00,Snow,Light Snow,0,2013-12-06 11:44:00
3:53 AM,28.9,27.0,92,30.10,5.0,Calm,Calm,-,0.00,,Overcast,0,2013-12-06 11:53:00
4:04 AM,28.9,27.0,92,30.07,2.0,Calm,Calm,-,0.00,Snow,Light Snow,0,2013-12-06 12:04:00
4:27 AM,28.9,27.0,92,30.06,3.0,Calm,Calm,-,0.00,Snow,Light Snow,0,2013-12-06 12:27:00
4:53 AM,28.9,27.0,92,30.06,4.0,Calm,Calm,-,0.00,Snow,Light Snow,0,2013-12-06 12:53:00
4:57 AM,28.9,27.0,92,30.05,2.5,Calm,Calm,-,0.00,Snow,Light Snow,0,2013-12-06 12:57:00
5:05 AM,28.9,27.0,92,30.04,1.0,Calm,Calm,-,0.00,Snow,Light Snow,0,2013-12-06 13:05:00
5:22 AM,28.9,27.0,92,30.03,2.0,Calm,Calm,-,0.00,Snow,Light Snow,0,2013-12-06 13:22:00
5:31 AM,28.9,28.0,96,30.03,3.0,Calm,Calm,-,0.00,Snow,Light Snow,0,2013-12-06 13:31:00
5:53 AM,28.9,27.0,92,30.04,5.0,Calm,Calm,-,0.00,,Overcast,0,2013-12-06 13:53:00
6:06 AM,28.9,28.0,96,30.02,1.8,Calm,Calm,-,0.00,Snow,Light Snow,0,2013-12-06 14:06:00
6:20 AM,30.0,28.0,92,30.02,1.8,Calm,Calm,-,0.00,Snow,Light Snow,0,2013-12-06 14:20:00
6:24 AM,28.9,28.0,96,30.02,2.0,Calm,Calm,-,0.00,Snow,Light Snow,0,2013-12-06 14:24:00
6:33 AM,28.9,28.0,96,30.01,3.0,Calm,Calm,-,0.00,Snow,Light Snow,0,2013-12-06 14:33:00
6:38 AM,28.9,28.0,96,30.01,1.8,Calm,Calm,-,0.00,Snow,Light Snow,0,2013-12-06 14:38:00
6:48 AM,28.4,28.4,100,30.01,0.8,Calm,Calm,-,0.00,Snow,Light Snow,0,2013-12-06 14:48:00
6:53 AM,28.9,28.0,96,30.03,0.8,Calm,Calm,-,0.00,Snow,Light Snow,0,2013-12-06 14:53:00
7:03 AM,30.0,28.0,92,30.00,2.0,Calm,Calm,-,0.00,Snow,Light Snow,0,2013-12-06 15:03:00
7:26 AM,30.0,28.0,92,29.99,1.2,Calm,Calm,-,0.00,Snow,Light Snow,0,2013-12-06 15:26:00
7:53 AM,30.0,28.0,92,30.00,0.8,Calm,Calm,-,0.00,Snow,Light Snow,0,2013-12-06 15:53:00
8:02 AM,30.0,28.9,96,29.98,1.0,Calm,Calm,-,0.00,Snow,Light Snow,0,2013-12-06 16:02:00
8:24 AM,30.0,28.9,96,29.97,3.0,North,3.5,-,0.00,Snow,Light Snow,360,2013-12-06 16:24:00
8:53 AM,30.9,28.9,92,29.99,4.0,North,3.5,-,0.00,,Overcast,360,2013-12-06 16:53:00
9:53 AM,33.1,30.0,89,29.96,6.0,Calm,Calm,-,0.02,,Overcast,0,2013-12-06 17:53:00
10:23 AM,33.1,30.9,92,29.94,1.8,North,4.6,-,0.02,Snow,Light Snow,360,2013-12-06 18:23:00
10:36 AM,33.1,30.9,92,29.93,0.8,Calm,Calm,-,0.03,Snow,Light Snow,0,2013-12-06 18:36:00
10:48 AM,33.8,32.0,93,29.92,1.2,Calm,Calm,-,0.04,Snow,Light Snow,0,2013-12-06 18:48:00
10:53 AM,34.0,32.0,92,29.94,1.5,Calm,Calm,-,0.05,Snow,Light Snow,0,2013-12-06 18:53:00
10:58 AM,35.1,32.0,89,29.91,3.0,Calm,Calm,-,0.00,Snow,Light Snow,0,2013-12-06 18:58:00
11:33 AM,35.1,32.0,89,29.89,6.0,Calm,Calm,-,0.01,Rain,Light Rain,0,2013-12-06 19:33:00
11:53 AM,36.0,33.1,89,29.90,8.0,East,3.5,-,0.01,,Overcast,90,2013-12-06 19:53:00
12:07 PM,36.0,33.1,89,29.88,10.0,Calm,Calm,-,N/A,,Overcast,0,2013-12-06 20:07:00
12:44 PM,35.1,33.1,92,29.86,1.8,North,10.4,-,0.02,Snow,Light Snow,10,2013-12-06 20:44:00
12:53 PM,33.1,32.0,96,29.89,1.0,North,5.8,-,0.03,Snow,Light Snow,360,2013-12-06 20:53:00
1:04 PM,33.1,32.0,96,29.87,0.5,North,4.6,-,0.00,Fog-Snow,Snow,360,2013-12-06 21:04:00
1:12 PM,33.1,32.0,96,29.86,0.2,Calm,Calm,-,0.00,Fog-Snow,Snow,0,2013-12-06 21:12:00
1:15 PM,33.1,33.1,100,29.86,0.5,Calm,Calm,-,0.00,Fog-Snow,Snow,0,2013-12-06 21:15:00
1:28 PM,33.1,32.0,96,29.85,1.0,Calm,Calm,-,0.00,Snow,Light Snow,0,2013-12-06 21:28:00
1:39 PM,33.1,33.1,100,29.85,2.0,Calm,Calm,-,0.01,Rain,Light Rain,0,2013-12-06 21:39:00
1:53 PM,33.1,33.1,100,29.86,3.0,SW,3.5,-,0.02,,Overcast,220,2013-12-06 21:53:00
2:12 PM,34.0,33.1,96,29.85,7.0,SSE,3.5,-,0.02,,Overcast,150,2013-12-06 22:12:00
2:35 PM,34.0,33.1,96,29.84,1.8,SE,5.8,-,0.05,Snow,Light Snow,130,2013-12-06 22:35:00
2:42 PM,34.0,33.1,96,29.84,2.0,SSE,4.6,-,0.06,Snow,Light Snow,150,2013-12-06 22:42:00
2:49 PM,33.8,33.8,100,29.84,4.0,SE,3.5,-,0.07,Rain,Light Rain,140,2013-12-06 22:49:00
2:53 PM,34.0,33.1,96,29.86,5.0,SE,3.5,-,0.08,Rain,Light Rain,140,2013-12-06 22:53:00
3:02 PM,35.1,33.1,92,29.84,6.0,SE,5.8,-,0.01,,Overcast,140,2013-12-06 23:02:00
3:16 PM,35.1,33.1,92,29.85,7.0,Calm,Calm,-,0.02,,Overcast,0,2013-12-06 23:16:00
3:28 PM,34.0,33.1,96,29.84,1.8,East,3.5,-,0.03,Snow,Light Snow,80,2013-12-06 23:28:00
3:35 PM,35.1,33.1,92,29.84,3.0,East,3.5,-,0.04,Snow,Light Snow,100,2013-12-06 23:35:00
3:44 PM,35.1,33.1,92,29.84,6.0,Calm,Calm,-,0.04,,Overcast,0,2013-12-06 23:44:00
3:53 PM,35.1,33.1,92,29.86,6.0,North,3.5,-,0.05,,Overcast,350,2013-12-06 23:53:00
4:19 PM,35.1,33.1,92,29.84,2.0,Calm,Calm,-,0.01,Rain,Rain,0,2013-12-07 00:19:00
4:25 PM,34.0,33.1,96,29.84,1.5,NNE,4.6,-,0.01,Snow,Light Snow,20,2013-12-07 00:25:00
4:53 PM,33.1,32.0,96,29.87,1.0,North,3.5,-,0.02,Snow,Light Snow,350,2013-12-07 00:53:00
5:35 PM,32.0,30.9,96,29.85,3.0,North,9.2,-,0.00,Snow,Light Snow,350,2013-12-07 01:35:00
5:53 PM,32.0,30.9,96,29.88,7.0,North,11.5,-,0.00,Snow,Light Snow,360,2013-12-07 01:53:00
6:06 PM,30.9,28.9,92,29.86,10.0,North,12.7,-,0.01,,Overcast,360,2013-12-07 02:06:00
6:43 PM,28.9,26.1,89,29.87,10.0,North,11.5,-,0.01,,Overcast,350,2013-12-07 02:43:00
6:53 PM,28.9,26.1,89,29.89,10.0,North,12.7,-,0.01,,Overcast,360,2013-12-07 02:53:00
7:53 PM,28.0,25.0,88,29.92,5.0,North,11.5,-,0.00,Snow,Light Snow,10,2013-12-07 03:53:00
8:06 PM,28.0,25.0,88,29.91,8.0,North,10.4,-,0.00,,Overcast,360,2013-12-07 04:06:00
8:53 PM,28.0,25.0,88,29.95,6.0,North,9.2,-,0.00,Snow,Light Snow,10,2013-12-07 04:53:00
9:26 PM,27.0,25.0,92,29.94,2.0,North,9.2,-,0.00,Snow,Light Snow,360,2013-12-07 05:26:00
9:39 PM,27.0,25.0,92,29.95,3.0,North,10.4,-,0.00,Snow,Light Snow,360,2013-12-07 05:39:00
9:53 PM,27.0,24.1,89,29.97,5.0,North,8.1,-,0.00,Snow,Light Snow,360,2013-12-07 05:53:00
10:24 PM,27.0,24.1,89,29.96,10.0,North,5.8,-,0.00,,Overcast,360,2013-12-07 06:24:00
10:53 PM,27.0,23.0,85,30.00,9.0,North,8.1,-,0.00,Snow,Light Snow,360,2013-12-07 06:53:00
11:53 PM,27.0,23.0,85,30.01,10.0,North,4.6,-,0.00,,Overcast,360,2013-12-07 07:53:00